Location: ???????
(55.4362°N, 38.1183°E)
Time: 18:22:42
(UTC+00:00)

Cosmos 1346 Rocket - Pass Details

Date: 17 June 2021
Orbit: 526 x 551 km, 81.2° (Epoch: 30 July)

Event Time Altitude Azimuth Distance (km) Brightness Sun altitude
Exits shadow 20:35:00 11° 199° (SSW) 1,776 4.9 -10.3°
Maximum altitude 20:38:54 75° 285° (WNW) 573 2.9 -10.4°
Drops below altitude 10° 20:42:58 10° 12° (NNE) 1,839 6.7 -10.6°
Sets 20:45:09 0° 14° (NNE) 2,740 7.7 -10.6°
